Wind_Speed
13 14 14 15 15 16 16 16 16 16 16 17 17 17 17 17 17 17 17 17 17 17 18 18 18 19 19 19 19 19 19 19 19 18 18 18 18 18 18 18 18 18 17
13 14 14 15 16 16 16 16 17 17 17 17 17 17 17 17 17 17 18 18 18 18 18 18 19 19 19 19 19 19 19 19 19 19 19 19 18 18 19 19 19 18 18
12 13 14 15 15 16 16 16 17 17 17 17 18 18 18 18 18 18 18 18 18 18 19 19 19 19 19 19 19 19 19 19 19 19 19 19 19 19 18 19 19 19 19
11 12 13 14 15 15 16 17 17 17 17 18 18 18 18 18 18 18 18 18 19 19 19 19 19 19 19 19 19 19 20 19 19 19 19 19 19 19 18 18 19 19 19
10 12 13 14 14 15 16 16 17 17 18 18 18 18 18 18 18 18 18 19 18 18 18 18 18 18 19 19 19 19 19 19 19 19 19 19 19 19 18 18 18 18 19
11 12 13 14 15 15 16 17 17 18 18 18 18 18 18 18 18 18 18 18 18 18 18 18 18 19 19 19 19 19 19 19 19 18 18 18 18 18 18 18 18 19 19
12 13 14 15 15 16 17 18 18 18 19 19 20 20 19 19 19 19 18 18 18 18 18 19 19 19 19 19 19 19 19 19 19 18 18 18 18 18 18 19 19 19 19
13 14 16 16 17 18 19 19 20 20 20 20 21 20 20 20 20 20 19 19 19 19 19 19 19 20 19 19 19 19 19 19 19 19 19 19 19 19 19 19 19 19 20
15 16 17 18 19 20 20 21 21 21 22 22 22 22 22 21 21 21 21 21 20 20 20 20 20 20 20 20 20 19 19 19 19 19 19 19 19 20 20 20 20 21 21
17 17 19 19 20 21 22 22 22 23 23 23 23 23 23 23 23 23 23 23 22 22 22 22 21 21 21 21 21 21 21 21 21 21 21 21 21 21 22 22 22 22 23
18 19 19 21 21 22 22 23 23 23 23 24 24 24 25 24 24 25 25 24 24 24 24 24 23 23 23 24 24 24 24 24 24 24 24 24 24 24 24 24 25 25 26
19 20 20 21 22 22 23 23 24 24 24 25 25 26 26 26 26 26 26 26 26 26 26 26 26 26 26 26 27 27 27 27 27 27 27 27 27 27 28 28 28 29 29
21 21 21 21 22 23 23 24 24 25 25 26 26 26 27 27 27 27 28 28 28 28 28 28 28 29 29 29 30 30 30 31 31 31 31 31 32 32 32 33 33 34 34
22 22 22 22 22 22 23 23 24 24 25 25 26 26 27 27 28 28 28 29 30 30 30 30 31 31 32 32 33 33 34 34 35 35 35 36 36 37 37 38 38 39 39
22 22 22 22 22 22 23 23 23 23 24 25 26 26 27 27 28 28 29 29 30 31 31 32 33 33 34 35 36 36 37 38 39 39 40 40 41 42 43 43 44 44 45
21 21 21 22 22 22 22 23 23 24 24 25 26 26 27 27 28 28 29 30 30 31 32 32 34 35 36 37 38 39 40 40 41 42 43 44 45 46 47 48 48 49 49
20 20 21 21 21 22 22 23 24 24 25 26 26 27 28 28 28 29 29 30 31 32 32 33 34 35 36 37 38 40 41 42 43 44 44 45 46 47 49 50 51 52 52
20 20 20 21 21 22 23 24 25 26 27 28 28 29 29 29 30 30 30 31 32 32 33 34 35 36 36 37 38 39 40 40 41 43 44 45 46 47 48 50 51 52 53
19 19 20 21 22 24 25 26 27 28 29 29 30 30 30 31 31 31 31 31 32 32 33 33 34 35 36 37 38 39 39 40 41 43 44 45 46 47 48 49 51 52 54
20 20 21 23 24 25 26 28 29 29 30 30 30 31 31 31 31 31 31 32 32 32 33 34 35 36 36 38 38 39 40 41 42 43 44 45 46 48 49 50 51 53 54
21 22 23 24 25 26 27 28 29 29 30 30 30 30 30 30 30 30 30 31 31 32 33 34 35 35 36 38 39 39 40 41 42 44 45 46 48 49 51 52 54 55 56
22 23 24 25 25 26 27 28 29 30 30 30 29 29 29 29 29 29 30 31 31 32 33 35 36 36 37 39 41 41 41 42 44 46 47 48 50 52 53 55 57 58 60
23 24 25 26 26 27 28 29 29 30 29 29 28 28 28 29 29 30 31 31 32 33 34 36 37 38 40 42 44 46 47 47 47 48 50 52 54 55 57 58 60 62 63
25 25 26 27 27 29 30 30 30 30 29 29 29 29 30 30 31 32 33 34 35 36 38 39 41 42 44 45 48 50 52 54 55 54 53 55 58 60 61 63 64 65 67
26 26 27 28 29 30 31 31 31 30 30 30 31 31 32 33 33 35 36 37 38 40 41 43 45 47 49 50 52 54 56 58 60 62 61 60 61 63 65 67 69 70 71
27 28 29 30 31 32 33 33 33 32 32 32 33 34 35 36 37 38 39 40 42 44 46 47 49 51 53 55 57 59 60 62 63 66 67 67 67 67 68 70 72 75 76
Wind_Direction
260 264 266 268 269 270 271 272 274 275 276 277 278 279 279 278 278 277 277 276 275 275 273 272 271 271 271 272 272 271 271 271 271 272 272 273 273 274 274 275 275 276 276
266 267 268 270 271 272 273 274 274 275 277 277 278 278 277 277 277 277 277 276 275 275 274 274 273 272 272 272 272 271 271 272 272 272 272 273 274 274 274 275 275 275 276
271 271 272 272 273 274 275 276 275 276 277 277 277 277 276 277 277 276 276 276 276 276 276 276 275 274 273 272 271 272 272 273 273 273 273 274 274 275 275 275 275 275 275
275 275 274 274 275 276 276 277 277 278 278 278 278 277 277 278 278 278 277 277 277 277 276 276 276 275 274 273 273 272 272 273 273 273 273 274 275 275 275 276 276 276 277
278 279 278 277 277 278 278 279 279 279 280 279 279 279 279 279 279 279 278 278 278 277 277 276 276 276 276 275 274 273 272 272 272 272 272 273 274 275 275 276 277 278 278
281 281 280 279 278 279 279 280 280 281 281 281 281 281 281 280 280 281 280 279 279 278 277 276 276 276 276 275 273 273 273 272 272 272 272 272 274 275 276 277 279 279 280
282 282 281 280 280 280 280 281 282 282 283 283 283 282 282 281 281 281 280 280 280 279 277 276 276 275 275 274 273 273 273 272 271 271 271 272 273 274 276 278 279 280 281
282 282 282 282 282 282 282 282 283 284 284 284 283 283 282 281 280 280 280 280 280 279 278 276 275 275 274 274 273 273 273 272 271 270 270 271 272 274 275 277 278 280 282
283 283 283 283 283 283 284 284 284 284 284 284 283 283 282 281 281 280 280 280 279 278 278 277 275 274 273 272 272 272 272 272 271 270 270 270 271 273 274 275 277 279 280
283 283 283 283 283 283 283 284 284 284 284 284 283 282 282 281 281 280 279 279 278 277 277 276 274 273 271 270 270 270 270 270 270 269 269 270 271 272 273 274 275 277 277
283 283 282 282 282 282 283 283 283 283 283 283 283 283 281 280 280 279 278 277 276 276 275 274 273 272 271 270 269 269 269 269 269 268 269 269 270 271 272 273 274 274 275
285 284 283 282 282 282 282 283 283 283 283 283 283 283 282 280 279 278 277 276 275 274 273 273 272 271 270 269 269 268 268 268 268 268 268 268 269 269 270 271 272 272 273
286 285 285 283 284 284 284 284 284 284 284 284 284 283 282 281 279 278 277 276 275 274 273 272 271 270 269 269 268 268 267 267 267 267 267 267 268 268 269 269 270 271 271
284 285 285 285 285 286 286 286 286 286 286 286 285 284 283 282 280 279 277 276 275 274 273 272 272 271 270 269 268 268 267 267 267 267 267 267 267 267 268 268 269 269 269
283 283 284 285 286 287 288 288 288 288 288 287 287 286 285 284 282 281 279 278 276 275 274 273 272 271 270 269 269 268 268 268 268 268 267 267 267 267 268 268 268 268 269
282 282 284 286 287 287 288 289 289 289 289 289 288 288 287 285 284 283 281 280 278 277 276 276 275 274 273 272 271 271 271 270 270 269 269 269 269 269 269 269 269 270 270
281 283 284 285 287 287 288 288 289 289 289 288 288 287 286 286 285 284 283 282 280 279 278 277 277 276 275 275 274 274 273 273 273 272 272 272 272 272 272 272 271 271 271
280 282 283 285 286 288 288 289 289 290 290 289 288 287 286 286 285 284 283 282 282 281 280 279 279 278 278 277 277 277 276 276 276 275 275 275 274 274 274 274 274 273 273
279 280 282 284 286 287 289 289 289 289 289 289 288 287 286 285 285 284 284 283 283 282 282 281 281 280 280 279 278 278 278 278 277 277 276 276 276 275 275 274 274 274 274
279 281 283 286 287 289 289 290 290 289 289 289 288 287 287 286 285 284 284 283 284 283 283 282 282 282 282 282 281 281 280 280 280 279 278 278 278 277 277 276 275 275 275
281 283 286 288 290 291 292 291 291 290 290 289 289 288 287 286 286 286 286 286 285 285 285 284 284 284 284 284 283 283 282 283 282 281 281 280 279 279 278 278 277 276 276
284 286 289 291 292 292 293 293 292 291 290 289 288 287 287 287 287 287 287 287 287 287 287 287 286 287 287 287 286 285 283 282 283 283 282 281 280 280 279 279 279 278 277
286 289 291 292 293 294 294 294 293 291 290 289 288 287 287 287 287 287 288 288 288 288 288 288 288 289 289 289 289 288 287 285 282 282 283 282 281 280 280 279 278 278 277
288 290 292 292 293 295 295 295 294 292 290 288 287 287 287 288 288 288 289 289 289 289 289 289 290 290 290 290 290 290 290 290 288 285 283 283 283 282 281 280 279 278 277
288 291 292 293 294 295 296 295 293 291 289 288 288 288 288 288 288 289 289 289 290 290 290 291 291 292 292 292 292 292 292 291 291 290 287 285 284 284 283 282 281 280 279
289 291 292 293 294 295 295 294 292 290 289 288 288 288 288 288 288 289 290 291 291 292 292 293 293 294 294 294 294 294 293 293 292 291 290 289 287 285 285 284 283 282 281
Height
5876 5876 5877 5878 5878 5879 5879 5880 5880 5880 5880 5880 5880 5880 5880 5880 5880 5880 5880 5880 5881 5881 5881 5881 5881 5881 5881 5881 5882 5882 5882 5882 5882 5883 5883 5883 5883 5884 5884 5884 5884 5884 5885
5874 5874 5875 5875 5876 5876 5877 5877 5877 5877 5878 5878 5878 5878 5878 5878 5878 5878 5878 5878 5878 5878 5878 5878 5878 5879 5879 5879 5879 5879 5879 5879 5880 5880 5880 5881 5881 5881 5881 5881 5882 5882 5882
5872 5872 5873 5873 5874 5874 5874 5874 5875 5875 5875 5875 5875 5875 5875 5875 5875 5875 5875 5875 5875 5875 5875 5875 5876 5876 5876 5876 5876 5876 5877 5877 5877 5877 5878 5878 5878 5878 5878 5879 5879 5879 5879
5870 5870 5871 5871 5871 5872 5872 5872 5872 5872 5872 5872 5872 5872 5872 5872 5872 5872 5872 5872 5872 5872 5872 5872 5873 5873 5873 5873 5873 5873 5874 5874 5874 5874 5875 5875 5875 5875 5875 5875 5876 5876 5876
5868 5868 5869 5869 5869 5869 5869 5869 5870 5870 5870 5870 5870 5870 5870 5869 5869 5869 5869 5869 5869 5869 5869 5869 5869 5870 5870 5870 5870 5870 5871 5871 5871 5872 5872 5872 5872 5872 5872 5872 5872 5872 5873
5866 5867 5867 5867 5867 5867 5867 5867 5867 5867 5867 5867 5867 5867 5867 5867 5867 5866 5866 5866 5866 5866 5866 5866 5866 5866 5867 5867 5867 5867 5868 5868 5868 5868 5869 5869 5869 5869 5869 5869 5869 5869 5869
5864 5865 5864 5865 5865 5865 5865 5865 5864 5864 5864 5864 5864 5864 5864 5864 5864 5863 5863 5863 5863 5863 5863 5863 5863 5863 5863 5864 5864 5864 5864 5865 5865 5865 5865 5865 5865 5865 5865 5865 5865 5865 5865
5862 5862 5862 5862 5862 5862 5862 5862 5861 5861 5861 5861 5861 5861 5860 5860 5860 5860 5860 5860 5860 5860 5860 5860 5860 5860 5860 5860 5860 5860 5861 5861 5861 5861 5862 5862 5862 5862 5862 5862 5862 5862 5861
5859 5860 5859 5859 5859 5859 5858 5858 5858 5858 5858 5857 5857 5857 5857 5857 5856 5856 5856 5856 5856 5856 5856 5856 5856 5856 5856 5856 5856 5857 5857 5857 5857 5857 5858 5858 5858 5858 5858 5858 5858 5858 5857
5857 5857 5856 5855 5855 5855 5855 5854 5854 5854 5854 5853 5853 5853 5853 5853 5852 5852 5852 5852 5852 5852 5852 5852 5852 5852 5852 5852 5852 5852 5853 5853 5853 5853 5853 5853 5853 5853 5853 5853 5853 5853 5853
5853 5853 5853 5852 5851 5851 5851 5850 5850 5849 5849 5849 5849 5848 5848 5848 5848 5847 5847 5847 5847 5847 5847 5847 5847 5847 5847 5847 5847 5848 5848 5848 5848 5848 5848 5848 5848 5848 5848 5848 5848 5848 5847
5850 5849 5849 5849 5847 5847 5846 5846 5845 5845 5845 5844 5844 5844 5843 5843 5843 5842 5842 5842 5842 5842 5842 5841 5841 5842 5842 5842 5842 5842 5842 5842 5842 5842 5842 5842 5842 5842 5842 5842 5842 5841 5841
5846 5845 5845 5845 5844 5843 5842 5841 5841 5840 5840 5839 5839 5838 5838 5837 5837 5837 5836 5836 5836 5836 5836 5836 5835 5835 5835 5835 5835 5835 5836 5836 5836 5836 5836 5835 5835 5835 5835 5835 5835 5834 5834
5842 5841 5840 5840 5840 5838 5838 5837 5836 5835 5835 5834 5833 5833 5832 5832 5831 5831 5830 5830 5829 5829 5829 5829 5829 5828 5828 5828 5828 5828 5828 5828 5828 5828 5828 5827 5827 5827 5827 5826 5826 5826 5825
5838 5837 5836 5835 5835 5834 5833 5832 5831 5831 5830 5829 5828 5827 5826 5826 5825 5825 5824 5823 5823 5822 5822 5822 5821 5821 5821 5820 5820 5820 5820 5820 5820 5820 5819 5819 5818 5818 5817 5817 5816 5816 5815
5833 5833 5832 5831 5830 5829 5829 5828 5827 5826 5825 5823 5822 5821 5820 5820 5819 5818 5817 5817 5816 5815 5815 5814 5814 5813 5813 5812 5812 5812 5811 5811 5811 5811 5810 5810 5809 5808 5807 5807 5806 5805 5805
5829 5828 5827 5827 5826 5825 5824 5823 5822 5820 5819 5818 5817 5815 5814 5813 5812 5811 5810 5810 5809 5808 5807 5806 5806 5805 5805 5804 5803 5803 5802 5802 5802 5801 5801 5800 5799 5798 5797 5796 5795 5794 5793
5825 5824 5823 5822 5821 5820 5819 5818 5817 5815 5814 5812 5811 5809 5808 5807 5806 5805 5803 5802 5801 5800 5799 5798 5797 5797 5796 5795 5795 5794 5794 5793 5792 5791 5791 5790 5789 5788 5786 5785 5783 5782 5781
5821 5820 5819 5818 5817 5815 5814 5813 5811 5809 5808 5806 5804 5803 5801 5800 5798 5797 5796 5794 5793 5792 5791 5790 5789 5788 5787 5786 5785 5785 5784 5783 5782 5781 5780 5778 5777 5776 5775 5773 5772 5770 5768
5816 5815 5814 5813 5812 5810 5809 5807 5805 5803 5801 5799 5797 5796 5794 5792 5791 5790 5788 5787 5786 5785 5783 5782 5781 5780 5779 5777 5776 5776 5775 5773 5772 5770 5769 5768 5766 5764 5763 5761 5760 5758 5756
5811 5810 5809 5808 5806 5804 5803 5801 5799 5797 5795 5793 5790 5789 5787 5785 5784 5782 5781 5780 5778 5777 5775 5774 5772 5771 5769 5767 5766 5766 5765 5763 5761 5759 5758 5756 5754 5752 5750 5748 5746 5744 5742
5806 5805 5803 5802 5800 5798 5796 5794 5792 5790 5788 5786 5784 5782 5780 5778 5777 5775 5774 5772 5771 5769 5767 5765 5763 5762 5760 5757 5755 5754 5754 5755 5751 5748 5746 5744 5742 5739 5737 5734 5731 5729 5727
5800 5799 5797 5795 5794 5792 5790 5787 5785 5783 5781 5779 5777 5775 5774 5772 5770 5768 5767 5765 5763 5761 5759 5757 5754 5752 5750 5748 5744 5741 5739 5739 5739 5738 5734 5730 5727 5725 5723 5720 5716 5713 5710
5794 5793 5791 5789 5787 5785 5783 5780 5778 5776 5774 5772 5771 5769 5767 5765 5763 5761 5759 5757 5755 5752 5750 5747 5745 5742 5739 5737 5733 5729 5726 5722 5720 5720 5722 5717 5712 5709 5705 5702 5699 5696 5692
5788 5786 5784 5783 5780 5778 5776 5773 5771 5769 5767 5765 5763 5761 5759 5757 5755 5753 5750 5748 5746 5743 5740 5737 5734 5731 5727 5724 5720 5716 5712 5707 5702 5699 5699 5700 5696 5692 5687 5683 5679 5675 5672
5782 5780 5778 5776 5773 5771 5768 5766 5763 5761 5759 5757 5755 5753 5751 5749 5747 5744 5741 5738 5735 5732 5729 5726 5722 5718 5714 5710 5705 5701 5696 5692 5687 5681 5677 5676 5674 5672 5668 5663 5658 5653 5648